Terug naar catalogus

STARLINK-3360

ActiefCommunicatieVLEO
NORAD 51149·PAYLOAD·🇺🇸 United States

Gelanceerd Jan 19, 2022 vanaf Cape Canaveral Space Force Station

Loading…

Volgende Passages (komende 24 uur)

TLE

VersSource: CelesTrak SupGP

Epoch: Sep 14, 2026, 21:43 UTC

1 51149C 22005AX  26257.90534722 -.00033323  00000+0 -98445-3 0  2578
2 51149  53.1572 163.5155 0001460  93.0129 234.8595 15.34409808    15

Volg STARLINK-3360 in realtime met AllMySat

Download on the App Store